Location: Ernsee
(50.8780°N, 12.0389°E)
Time: 00:46:45
(UTC+00:00)

Daily predictions for brighter satellites

Satellite Brightness Start Highest point End
(mag) Time Altitude Azimuth Time Altitude Azimuth Time Altitude Azimuth
CENTAUR R/B 4.0 02:43:02 37° NNE 02:43:06 37° NNE 02:50:43 10° E
USA 238 DEB 4.4 03:03:43 52° NE 03:03:43 52° NE 03:10:37 10° ESE
USA 238 4.4 03:03:48 51° NE 03:03:48 51° NE 03:10:42 10° ESE
Lacrosse 5 rocket 3.8 03:24:41 22° ENE 03:24:41 22° ENE 03:26:18 10° ENE
NOSS 3-1 (C) 4.5 03:34:32 38° N 03:34:32 38° N 03:39:36 10° NE
Cosmos 2082 4.4 03:41:02 45° SE 03:41:02 45° SE 03:44:55 10° SSE
COSMO-SKYMED 1 4.4 03:38:26 10° SE 03:40:41 27° ESE 03:40:41 27° ESE
Cosmos 2297 Rocket 4.3 03:56:04 14° S 03:56:04 14° S 03:56:54 10° S
NOSS 3-2 (C) 4.3 03:53:11 41° NNW 03:55:52 62° NE 04:03:58 10° ESE
Cosmos 2327 Rocket 4.4 03:55:27 10° N 04:01:49 83° E 04:08:01 10° S
Cosmos 2227 Rocket 4.0 04:07:20 18° S 04:07:20 18° S 04:08:46 10° S
USA 229 DEB 4.4 04:04:40 37° NNW 04:04:45 37° NNW 04:11:18 10° NE
USA 229 4.4 04:04:45 37° NNW 04:04:51 37° NNW 04:11:23 10° NE
Nadezhda 1 Rocket 4.2 04:01:39 10° S 04:07:38 68° E 04:13:42 10° NNE
Meteor 2-15 Rocket 4.3 04:07:31 73° WSW 04:07:48 75° WNW 04:14:00 10° N
ATLAS 3B R/B 3.4 04:06:41 31° NNW 04:09:28 46° NNE 04:15:59 10° ESE
Cosmos 2263 Rocket 3.4 04:06:51 22° N 04:09:55 39° NE 04:15:11 10° ESE
ALOS 3.4 04:06:11 10° NNE 04:10:39 43° E 04:15:05 10° S
NOSS 3-1 (A) 4.1 04:10:51 41° NNW 04:10:51 41° NNW 04:17:18 10° NE
CZ-2C R/B 3.8 04:11:44 10° N 04:13:57 26° N 04:13:57 26° N
Cosmos 1656 3.4 04:17:31 76° W 04:17:40 77° WNW 04:23:12 10° NNE
NOSS 3-2 (A) 3.9 04:15:49 41° NW 04:18:51 88° SW 04:27:12 10° SE
USA 215 3.3 04:15:13 10° SE 04:21:37 56° SW 04:22:44 50° WSW
BREEZE-M DEB (TANK) 3.3 04:22:23 43° S 04:23:00 48° SSE 04:31:02 10° ENE
Cosmos 2278 4.2 04:18:22 10° S 04:23:57 58° ESE 04:29:34 10° NE
Abrixas rocket 4.1 04:28:36 26° ESE 04:28:36 26° ESE 04:30:09 10° ESE
CZ-4B R/B 4.2 04:22:46 10° N 04:25:19 33° N 04:25:19 33° N
Cosmos 2184 Rocket 4.1 04:28:02 50° WSW 04:28:02 50° WSW 04:33:27 10° SSW
SKYMED 2 4.1 04:26:09 10° S 04:29:15 45° S 04:29:15 45° S
EXPRESS MD2 4.3 04:32:42 31° ESE 04:32:42 31° ESE 04:34:17 10° E
Cosmos 2369 3.7 04:28:33 23° SSW 04:32:13 86° ESE 04:38:00 10° NNE
FALCON 9 DEB 4.0 04:34:24 46° NE 04:34:24 46° NE 04:37:10 10° E
Cosmos 1758 Rocket 3.6 04:32:18 28° N 04:34:34 75° E 04:38:57 10° SSE
CENTAUR R/B 3.2 04:30:13 27° NW 04:35:02 75° NE 04:43:42 10° SE
Cosmos 2154 Rocket 3.8 04:29:19 10° NNW 04:35:30 68° W 04:41:37 10° S
Okean O Rocket 2.9 04:32:36 10° NNE 04:36:51 41° E 04:41:03 10° S
SL-4 R/B 2.5 04:39:30 42° SSE 04:39:30 42° SSE 04:42:11 10° SE
Cosmos 783 Rocket 4.5 04:41:03 52° W 04:41:45 57° WNW 04:46:55 10° NNE
COSMOS 2455 3.7 04:38:43 10° S 04:44:30 51° ESE 04:50:18 10° NE
ADEOS Rocket 3.4 04:39:29 10° SE 04:44:48 54° ENE 04:50:21 10° N
CZ-4B R/B 4.1 04:39:57 10° NNE 04:45:24 51° E 04:50:43 10° S
STARLINK-29 3.5 04:47:02 58° NNE 04:47:02 58° NNE 04:50:20 10° E
USA 116 3.9 04:42:18 10° SSE 04:47:06 80° WSW 04:49:22 29° NNW
STARLINK-52 3.5 04:47:41 57° NNE 04:47:41 57° NNE 04:50:59 10° E
ATLAS 2AS CENTAUR R/B 4.2 04:40:44 10° S 04:48:08 44° ESE 04:55:34 10° NE
FENGYUN 3A 3.6 04:49:07 10° NNE 04:54:33 87° WNW 04:59:59 10° SSW
USA 238 DEB 3.9 04:51:11 31° WNW 04:54:39 58° SW 05:01:51 10° SSE
USA 238 3.9 04:51:16 31° WNW 04:54:45 58° SW 05:01:58 10° SSE
Cosmos 1980 Rocket 2.4 04:49:51 10° SSW 04:55:31 73° ESE 05:01:12 10° NNE
Meteor 1-21 Rocket 4.3 04:53:42 10° NNW 04:59:29 63° W 05:05:18 10° S
Cosmos 773 Rocket 3.9 04:55:06 13° SW 04:59:48 65° WNW 05:05:05 10° NNE
Cosmos 1825 Rocket 3.4 04:57:38 19° NNW 05:00:39 70° W 05:04:56 10° S
Cosmos 2058 Rocket 4.5 04:57:01 10° SSE 05:01:07 40° E 05:05:13 10° NNE
Lacrosse 5 rocket 2.2 05:00:19 35° NW 05:01:20 40° N 05:05:36 10° ENE
Cosmos 1295 Rocket 4.5 04:55:14 10° NNW 05:01:21 58° W 05:07:20 10° S
Cosmos 972 Rocket 4.3 04:56:14 10° NNW 05:02:43 69° WSW 05:08:26 10° S
Cosmos 1697 Rocket 2.6 04:59:42 17° SW 05:03:59 62° NW 05:09:35 10° NNE
Cosmos 1726 2.3 05:00:53 10° S 05:04:32 70° E 05:08:12 10° NNE
Cosmos 2366 rocket 4.2 04:58:30 10° N 05:04:52 74° ENE 05:11:14 10° SSE
Cosmos 1703 3.4 05:03:03 10° N 05:07:02 75° E 05:10:59 10° SSE
BREEZE M DEB (TANK) 4.4 05:05:28 15° SSW 05:07:21 31° SE 05:12:09 10° E
Cosmos 44 Rocket 4.2 05:08:04 27° WSW 05:08:04 27° WSW 05:12:04 10° S
Orbus 7S? 3.4 05:07:27 44° W 05:08:17 60° SW 05:13:54 10° SE
Cosmos 1758 4.5 05:11:14 26° NNW 05:11:14 26° NNW 05:13:27 10° N
Cosmos 2056 Rocket 4.3 05:06:01 10° NNW 05:11:22 55° ENE 05:16:41 10° SE
Cosmos 2227 4.1 05:08:41 18° NW 05:12:54 71° WSW 05:18:30 10° SSE
NOSS 2-2 (D) 3.1 05:11:27 25° SW 05:13:33 82° NW 05:17:52 10° NE
Cosmos 1953 2.4 05:12:18 10° SSW 05:16:14 50° WNW 05:20:13 10° N
MOS 1-B 4.3 05:12:41 10° N 05:18:25 63° WNW 05:24:07 10° SSW
Cosmos 923 Rocket 4.4 05:13:14 10° SSW 05:18:27 68° ESE 05:23:45 10° NNE
COSMO-SKYMED 1 3.8 05:15:15 10° SSW 05:17:54 23° WSW 05:17:54 23° WSW
Genesis I 3.3 05:16:51 25° NNW 05:18:58 72° NE 05:22:49 10° SE
Cosmos 1606 Rocket 3.5 05:18:01 10° SSW 05:22:27 71° W 05:26:54 10° N
Cosmos 1726 Rocket 3.5 05:20:32 10° SSW 05:24:59 82° WNW 05:29:27 10° N
CZ-4B DEB 4.2 05:20:47 10° N 05:26:15 58° WNW 05:31:39 10° SW
USA 32 4.1 05:23:07 10° NNW 05:28:14 54° W 05:33:19 10° SSW
Cosmos 2278 Rocket 4.4 05:25:33 10° N 05:29:06 17° NNE 05:32:39 10° ENE
Timation 1 Rocket 4.4 05:27:09 13° NW 05:32:27 63° WSW 05:38:22 10° SSE
Cosmos 1538 Rocket 4.2 05:29:41 10° SW 05:34:51 48° WNW 05:40:00 10° NNE
STARLINK-43 3.4 05:33:25 25° W 05:35:24 64° N 05:39:06 10° ENE
Cosmos 2181 Rocket 3.9 05:30:16 10° SSW 05:36:27 71° WNW 05:42:47 10° N
Cosmos 2341 Rocket 4.3 05:32:26 10° NNW 05:38:16 42° W 05:44:02 10° SSW
SL-8 Rocket 4.1 05:36:26 10° NNW 05:42:26 51° W 05:48:22 10° SSW
Cosmos 2322 Rocket 3.3 05:38:14 10° S 05:43:39 50° ESE 05:49:09 10° NE
Cosmos 2344 3.7 05:39:12 10° WSW 05:46:37 59° NNW 05:55:21 10° NE
NOSS 3-2 (C) 4.4 05:40:39 14° NW 05:46:55 49° WSW 05:54:50 10° SSE
Meteor 2-12 Rocket 4.5 05:41:24 10° N 05:47:32 89° E 05:53:39 10° S
ALOS 3.1 05:43:55 10° N 05:47:56 29° WNW 05:51:55 10° WSW
NOSS 2-2 (C) 3.7 05:49:02 12° WSW 05:52:19 44° NW 05:56:37 10° NE
Cosmos 2058 4.2 05:49:43 10° N 05:53:46 43° ENE 05:57:47 10° SSE
CZ-2C R/B 4.3 05:52:22 10° NNW 05:53:22 11° NW 05:53:22 11° NW
Cosmos 2263 Rocket 2.5 05:48:36 10° NW 05:53:58 46° WSW 05:59:20 10° S
Cosmos 1452 Rocket 4.4 05:49:03 10° NNW 05:54:10 48° ENE 05:59:14 10° SE
Cosmos 1076 Rocket 4.4 05:50:18 10° N 05:54:36 52° ENE 05:58:52 10° SSE
STARLINK-80 3.4 05:51:41 15° W 05:54:47 69° NNW 05:58:35 10° ENE
STARLINK-34 4.4 05:50:54 10° SW 05:54:49 51° SSE 05:58:45 10° ENE
Cosmos 1328 4.5 05:51:36 10° NNW 05:55:13 33° W 05:58:48 10° SSW
Cosmos 2228 3.5 05:51:48 10° SW 05:55:55 38° WNW 06:00:03 10° N
STARLINK-60 3.1 05:53:38 17° WNW 05:56:06 78° SSW 05:59:28 10° ESE
STARLINK-24 4.3 05:53:02 10° SW 05:56:58 53° SSE 06:00:53 10° ENE
NOAA 6 4.4 05:52:44 10° N 05:57:37 43° WNW 06:02:30 10° SW
STARLINK-81 4.4 05:54:04 10° SW 05:57:58 50° SSE 06:01:53 10° ENE
STARLINK-48 3.4 05:54:58 12° W 05:58:35 77° NNW 06:02:28 10° ENE
STARLINK-54 4.3 05:55:51 10° SW 05:59:47 55° SSE 06:03:44 10° ENE
ATLAS 3B R/B 2.8 05:53:57 10° NW 06:00:27 63° SW 06:07:14 10° SSE
STARLINK-77 4.3 05:57:20 10° SW 06:01:15 53° SSE 06:05:11 10° ENE
Envisat 3.4 05:57:09 10° NNE 06:02:16 71° ESE 06:07:19 10° S
Abrixas rocket 3.6 06:00:19 12° WSW 06:02:37 25° SSW 06:05:11 10° SE
STARLINK-25 4.3 05:58:45 10° SW 06:02:40 54° SSE 06:06:37 10° ENE
NOSS 2-2 (E) 4.1 05:59:53 11° W 06:03:17 35° NNW 06:07:36 10° NE
NOSS 3-4 (A) 3.7 05:57:30 10° SW 06:03:29 77° SE 06:09:56 10° NE
NOSS 3-4 (C) 3.7 05:57:36 10° SW 06:03:36 77° SE 06:10:02 10° NE
CZ-3 R/B 4.2 05:59:53 10° WSW 06:03:51 12° SW 06:06:43 10° SSW
Helios 1A Rocket 3.4 06:00:25 10° N 06:04:13 37° WNW 06:08:02 10° SW
STARLINK-71 4.1 06:00:48 10° SW 06:04:45 59° SSE 06:08:44 10° ENE
STARLINK-79 4.2 06:02:15 10° SW 06:06:12 56° SSE 06:10:09 10° ENE
STARLINK-78 4.2 06:03:56 10° SW 06:07:54 58° SSE 06:11:52 10° ENE
Cosmos 1844 Rocket 3.1 06:02:47 10° NNW 06:08:23 63° NE 06:13:59 10° SE
Cosmos 2278 4.4 06:03:18 10° WSW 06:08:26 33° NW 06:13:35 10° NNE
Cosmos 1680 Rocket 3.5 06:03:15 10° SW 06:08:33 66° WNW 06:13:53 10° NNE
Cosmos 1371 Rocket 4.3 06:04:15 10° NNW 06:09:20 50° WSW 06:14:27 10° S
STARLINK-26 3.2 06:05:50 10° WSW 06:09:23 86° NNW 06:12:55 10° ENE
STARLINK-57 4.1 06:05:40 10° SW 06:09:38 60° SSE 06:13:37 10° ENE
Okean-O 3.0 06:05:22 10° NNE 06:09:49 70° ESE 06:14:14 10° S
FALCON 9 DEB 3.2 06:07:43 12° WNW 06:10:56 86° SSW 06:14:27 10° ESE
CZ-2C R/B 3.7 06:06:26 10° S 06:11:02 65° WSW 06:15:33 10° NNW
STARLINK-49 4.1 06:07:11 10° SW 06:11:09 60° SSE 06:15:08 10° ENE
YAOGAN 6 2.8 06:08:04 10° NNE 06:11:40 75° ESE 06:15:11 10° S
STARLINK-27 4.1 06:08:51 10° SW 06:12:49 61° SSE 06:16:49 10° ENE
Okean O Rocket 2.5 06:09:15 10° N 06:13:03 28° WNW 06:16:50 10° WSW
BREEZE M DEB (TANK) 3.9 06:00:25 10° WNW 06:13:48 61° SSW 06:17:38 10° SE
STARLINK-74 4.1 06:10:29 10° SW 06:14:27 62° SSE 06:18:26 10° ENE
Cosmos 1821 Rocket 4.0 06:08:20 10° N 06:14:35 85° W 06:20:43 10° S
Nadezhda 3 Rocket 4.1 06:08:51 10° S 06:14:59 82° E 06:21:13 10° NNE
STARLINK-33 3.7 06:11:30 10° WSW 06:15:07 66° SSE 06:18:45 10° ENE
STARLINK-39 4.0 06:12:07 10° SW 06:16:06 63° SSE 06:20:06 10° ENE
Cosmos 1437 2.5 06:13:19 10° NNW 06:16:23 84° WSW 06:19:25 10° S
SL-4 R/B 3.9 06:16:08 10° WSW 06:17:40 12° SW 06:19:11 10° SSW
STARLINK 4.0 06:13:47 10° SW 06:17:46 65° SSE 06:21:47 10° ENE
SAR-Lupe-2 3.5 06:14:59 10° SSE 06:18:34 86° WSW 06:22:11 10° NNW
STARLINK-66 3.6 06:15:47 10° WSW 06:19:24 70° SSE 06:23:02 10° ENE
STARLINK-69 3.9 06:15:36 10° WSW 06:19:37 69° SSE 06:23:37 10° ENE
Cosmos 1812 Rocket 3.8 06:16:17 10° S 06:20:37 76° E 06:25:02 10° NNE
STARLINK-21 3.9 06:17:06 10° WSW 06:21:06 68° SSE 06:25:06 10° ENE
SL-16 R/B 2.2 06:15:49 10° SSW 06:21:29 82° WNW 06:27:13 10° NNE
H-2A R/B 3.4 06:19:08 10° N 06:22:43 34° WNW 06:26:16 10° SW
STARLINK-45 3.8 06:18:58 10° WSW 06:22:58 73° SSE 06:27:00 10° ENE
STARLINK-42 3.7 06:19:49 10° WSW 06:23:37 72° SSE 06:27:26 10° ENE
STARLINK-55 3.5 06:20:28 10° WSW 06:24:05 75° SSE 06:27:43 10° ENE
STARLINK-29 3.2 06:20:39 10° WNW 06:24:12 82° SSW 06:27:43 10° ESE
STARLINK-70 3.8 06:20:31 10° WSW 06:24:31 72° SSE 06:28:33 10° ENE
Cosmos 2112 Rocket 4.1 06:19:34 10° SW 06:24:50 58° WNW 06:30:09 10° NNE
STARLINK-52 3.2 06:21:21 10° WNW 06:24:53 86° SSW 06:28:24 10° ESE
STARLINK-64 3.7 06:21:12 10° WSW 06:25:01 72° SSE 06:28:51 10° ENE
CENTAUR R/B 3.8 06:18:15 10° NW 06:25:36 40° WSW 06:33:28 10° S
CZ-4B R/B 3.9 06:20:50 10° N 06:25:45 32° WNW 06:30:34 10° WSW
STARLINK-76 3.8 06:22:03 10° WSW 06:26:04 71° SSE 06:30:05 10° ENE
Cosmos 1420 Rocket 4.1 06:21:32 10° NNW 06:26:51 80° WSW 06:32:09 10° SSE
STARLINK 3.8 06:23:42 10° WSW 06:27:42 73° SSE 06:31:45 10° ENE
Iridium 96 3.5 06:25:18 10° S 06:27:56 76° W 06:30:25 10° N
STARLINK-32 3.8 06:25:22 10° WSW 06:29:22 74° SSE 06:33:24 10° ENE
Cosmos 158 Rocket 3.8 06:25:14 10° SW 06:30:04 65° WNW 06:35:01 10° NNE
COSMOS 2455 3.2 06:24:52 10° WSW 06:30:35 43° NW 06:36:20 10° NNE
ADEOS Rocket 3.7 06:26:12 10° SSW 06:30:47 27° W 06:35:30 10° NW
STARLINK-40 3.8 06:27:01 10° WSW 06:31:01 75° SSE 06:35:04 10° ENE
Cosmos 1844 3.9 06:27:16 10° NNW 06:32:53 76° ENE 06:38:27 10° SE
